• In Deutschland
  • Länderverzeichnis
  • Für 7 Tage
  • Wassertemperatur
  • Satellitenkarten
  • Wetterkarte
  • Widgets
  • user-avatar
    Anmelden

    Stündliche Wetter Salzburg

    Heute, 25 Juli, Dienstag

    Zeit Temperatur Niederschläge Wind Luftdruck Luftfeuchtigkeit
    00:00 +5°C° 0,2 mm 2 m/S 622 mmHg 96%
    01:00 +4°C° 0 mm 2 m/S 621 mmHg 96%
    02:00 +4°C° 0,1 mm 2 m/S 621 mmHg 96%
    03:00 +4°C° 0,1 mm 2 m/S 621 mmHg 96%
    04:00 +4°C° 0,1 mm 2 m/S 621 mmHg 95%
    05:00 +4°C° 0,2 mm 2 m/S 621 mmHg 94%
    06:00 +5°C° 0,2 mm 2 m/S 621 mmHg 94%
    07:00 +7°C° 0 mm 2 m/S 621 mmHg 91%
    08:00 +8°C° 0,1 mm 2 m/S 622 mmHg 84%
    09:00 +9°C° 0,1 mm 2 m/S 622 mmHg 76%
    10:00 +10°C° 0,1 mm 3 m/S 622 mmHg 68%
    11:00 +10°C° 0,3 mm 3 m/S 622 mmHg 66%
    12:00 +11°C° 0,3 mm 3 m/S 622 mmHg 65%
    13:00 +11°C° 0 mm 3 m/S 622 mmHg 64%
    14:00 +10°C° 0,7 mm 3 m/S 622 mmHg 69%
    15:00 +10°C° 0,7 mm 3 m/S 622 mmHg 73%
    16:00 +9°C° 0,7 mm 3 m/S 622 mmHg 78%
    17:00 +9°C° 0,6 mm 2 m/S 622 mmHg 82%
    18:00 +8°C° 0,6 mm 2 m/S 621 mmHg 87%
    19:00 +8°C° 0,6 mm 1 m/S 621 mmHg 91%
    20:00 +7°C° 0,5 mm 1 m/S 621 mmHg 93%
    21:00 +7°C° 0,5 mm 1 m/S 621 mmHg 94%
    22:00 +6°C° 0,5 mm 1 m/S 621 mmHg 96%
    23:00 +5°C° 0,3 mm 2 m/S 620 mmHg 95%

    Morgen, 26 Juli, Mittwoch

    Zeit Temperatur Niederschläge Wind Luftdruck Luftfeuchtigkeit
    00:00 +5°C° 0,3 mm 2 m/S 620 mmHg 95%
    01:00 +5°C° 0,3 mm 2 m/S 620 mmHg 94%
    02:00 +5°C° 0,4 mm 1 m/S 620 mmHg 94%
    03:00 +5°C° 0,4 mm 1 m/S 620 mmHg 93%
    04:00 +5°C° 0,4 mm 1 m/S 620 mmHg 93%
    05:00 +6°C° 0,8 mm 1 m/S 620 mmHg 93%
    06:00 +5°C° 0,8 mm 2 m/S 620 mmHg 93%
    07:00 +5°C° 0,8 mm 2 m/S 620 mmHg 93%
    08:00 +5°C° 2 mm 2 m/S 620 mmHg 94%
    09:00 +6°C° 2 mm 2 m/S 620 mmHg 94%
    10:00 +6°C° 2 mm 2 m/S 621 mmHg 94%
    11:00 +6°C° 1,2 mm 2 m/S 621 mmHg 93%
    12:00 +6°C° 1,2 mm 2 m/S 621 mmHg 91%
    13:00 +7°C° 1,2 mm 2 m/S 622 mmHg 90%
    14:00 +7°C° 0,6 mm 2 m/S 622 mmHg 88%
    15:00 +7°C° 0,6 mm 3 m/S 622 mmHg 87%
    16:00 +7°C° 0,6 mm 3 m/S 623 mmHg 85%
    17:00 +7°C° 0,5 mm 2 m/S 623 mmHg 87%
    18:00 +7°C° 0,5 mm 2 m/S 623 mmHg 89%
    19:00 +6°C° 0,5 mm 2 m/S 623 mmHg 91%
    20:00 +6°C° 1 mm 2 m/S 623 mmHg 92%
    21:00 +5°C° 1 mm 2 m/S 623 mmHg 93%
    22:00 +5°C° 1 mm 2 m/S 623 mmHg 94%
    23:00 +5°C° 1,6 mm 2 m/S 623 mmHg 94%

    übermorgen, 27 Juli, Donnerstag

    Zeit Temperatur Niederschläge Wind Luftdruck Luftfeuchtigkeit
    00:00 +5°C° 1,6 mm 2 m/S 623 mmHg 95%
    01:00 +5°C° 1,6 mm 2 m/S 623 mmHg 95%
    02:00 +5°C° 0,7 mm 2 m/S 623 mmHg 95%
    03:00 +5°C° 0,7 mm 2 m/S 623 mmHg 95%
    04:00 +5°C° 0,7 mm 2 m/S 624 mmHg 95%
    05:00 +6°C° 0 mm 2 m/S 624 mmHg 93%
    06:00 +7°C° 0 mm 2 m/S 624 mmHg 91%
    07:00 +8°C° 0 mm 2 m/S 625 mmHg 89%
    08:00 +10°C° 0 mm 2 m/S 625 mmHg 76%
    09:00 +13°C° 0 mm 2 m/S 626 mmHg 63%
    10:00 +15°C° 0 mm 2 m/S 627 mmHg 50%
    11:00 +15°C° 0 mm 1 m/S 627 mmHg 54%
    12:00 +14°C° 0 mm 1 m/S 626 mmHg 58%
    13:00 +14°C° 0 mm 1 m/S 626 mmHg 62%
    14:00 +13°C° 0,4 mm 1 m/S 626 mmHg 67%
    15:00 +12°C° 0,4 mm 1 m/S 625 mmHg 73%
    16:00 +12°C° 0,4 mm 1 m/S 625 mmHg 78%
    17:00 +11°C° 1,4 mm 1 m/S 625 mmHg 83%
    18:00 +10°C° 1,4 mm 1 m/S 625 mmHg 88%
    19:00 +8°C° 1,4 mm 2 m/S 625 mmHg 93%
    20:00 +8°C° 0,7 mm 2 m/S 625 mmHg 93%
    21:00 +8°C° 0,7 mm 2 m/S 625 mmHg 93%
    22:00 +7°C° 0,7 mm 2 m/S 625 mmHg 93%
    23:00 +7°C° 0,2 mm 2 m/S 625 mmHg 92%

    28 Juli, Freitag

    Zeit Temperatur Niederschläge Wind Luftdruck Luftfeuchtigkeit
    00:00 +7°C° 0,2 mm 2 m/S 625 mmHg 92%
    01:00 +7°C° 0,2 mm 2 m/S 625 mmHg 92%
    02:00 +8°C° 0,4 mm 1 m/S 625 mmHg 93%
    03:00 +8°C° 0,4 mm 1 m/S 625 mmHg 93%
    04:00 +8°C° 0,4 mm 1 m/S 625 mmHg 94%
    05:00 +9°C° 0,9 mm 1 m/S 626 mmHg 93%
    06:00 +10°C° 0,9 mm 1 m/S 626 mmHg 92%
    07:00 +10°C° 0,9 mm 1 m/S 626 mmHg 92%
    08:00 +12°C° 0,7 mm 1 m/S 627 mmHg 89%
    09:00 +13°C° 0,7 mm 1 m/S 628 mmHg 86%
    10:00 +15°C° 0,7 mm 1 m/S 628 mmHg 83%
    11:00 +15°C° 0,8 mm 1 m/S 628 mmHg 81%
    12:00 +15°C° 0,8 mm 2 m/S 629 mmHg 80%
    13:00 +16°C° 0,8 mm 2 m/S 629 mmHg 78%
    14:00 +16°C° 0,5 mm 2 m/S 629 mmHg 78%
    15:00 +16°C° 0,5 mm 2 m/S 629 mmHg 79%
    16:00 +15°C° 0,5 mm 2 m/S 629 mmHg 79%
    17:00 +15°C° 0,2 mm 2 m/S 629 mmHg 83%
    18:00 +14°C° 0,2 mm 1 m/S 629 mmHg 88%
    19:00 +13°C° 0,2 mm 1 m/S 629 mmHg 92%
    20:00 +12°C° 0 mm 1 m/S 629 mmHg 93%
    21:00 +11°C° 0 mm 1 m/S 629 mmHg 95%
    22:00 +10°C° 0 mm 1 m/S 629 mmHg 96%
    23:00 +9°C° 0 mm 1 m/S 629 mmHg 96%

    29 Juli, Samstag

    Zeit Temperatur Niederschläge Wind Luftdruck Luftfeuchtigkeit
    00:00 +9°C° 0 mm 1 m/S 629 mmHg 96%
    01:00 +9°C° 0 mm 1 m/S 629 mmHg 96%
    02:00 +9°C° 0 mm 1 m/S 629 mmHg 96%
    03:00 +9°C° 0 mm 1 m/S 629 mmHg 96%
    04:00 +9°C° 0 mm 1 m/S 629 mmHg 95%
    05:00 +10°C° 0 mm 1 m/S 629 mmHg 93%
    06:00 +12°C° 0 mm 1 m/S 630 mmHg 91%
    07:00 +13°C° 0 mm 1 m/S 630 mmHg 89%
    08:00 +15°C° 0 mm 1 m/S 631 mmHg 79%
    09:00 +19°C° 0 mm 1 m/S 632 mmHg 70%
    10:00 +21°C° 0 mm 1 m/S 633 mmHg 61%
    11:00 +21°C° 0,4 mm 1 m/S 633 mmHg 64%
    12:00 +21°C° 0,4 mm 1 m/S 632 mmHg 68%
    13:00 +19°C° 0,4 mm 2 m/S 632 mmHg 72%
    14:00 +20°C° 1,3 mm 1 m/S 632 mmHg 76%
    15:00 +19°C° 1,3 mm 1 m/S 631 mmHg 81%
    16:00 +18°C° 1,3 mm 1 m/S 631 mmHg 85%
    17:00 +16°C° 1,9 mm 1 m/S 631 mmHg 89%
    18:00 +15°C° 1,9 mm 1 m/S 631 mmHg 92%
    19:00 +14°C° 1,9 mm 1 m/S 630 mmHg 96%
    20:00 +14°C° 5,4 mm 1 m/S 630 mmHg 96%
    21:00 +13°C° 5,4 mm 1 m/S 631 mmHg 97%
    22:00 +13°C° 5,4 mm 1 m/S 631 mmHg 98%
    23:00 +12°C° 1,3 mm 1 m/S 630 mmHg 97%

    30 Juli, Sonntag

    Zeit Temperatur Niederschläge Wind Luftdruck Luftfeuchtigkeit
    00:00 +12°C° 1,3 mm 1 m/S 630 mmHg 97%
    01:00 +12°C° 1,3 mm 1 m/S 630 mmHg 96%
    02:00 +11°C° 0,1 mm 1 m/S 630 mmHg 96%
    03:00 +11°C° 0,1 mm 1 m/S 629 mmHg 96%
    04:00 +11°C° 0,1 mm 1 m/S 629 mmHg 95%
    05:00 +12°C° 0,2 mm 1 m/S 629 mmHg 94%
    06:00 +13°C° 0,2 mm 1 m/S 630 mmHg 93%
    07:00 +14°C° 0,2 mm 1 m/S 630 mmHg 92%
    08:00 +16°C° 0,3 mm 1 m/S 631 mmHg 80%
    09:00 +20°C° 0,3 mm 1 m/S 632 mmHg 67%
    10:00 +23°C° 0,3 mm 1 m/S 632 mmHg 55%
    11:00 +23°C° 0,5 mm 1 m/S 632 mmHg 52%
    12:00 +24°C° 0,5 mm 1 m/S 632 mmHg 49%
    13:00 +25°C° 0,5 mm 1 m/S 632 mmHg 46%
    14:00 +24°C° 0,7 mm 1 m/S 632 mmHg 51%
    15:00 +23°C° 0,7 mm 1 m/S 632 mmHg 56%
    16:00 +22°C° 0,7 mm 1 m/S 631 mmHg 62%
    17:00 +21°C° 0,6 mm 1 m/S 631 mmHg 69%
    18:00 +19°C° 0,6 mm 1 m/S 631 mmHg 76%
    19:00 +16°C° 0,6 mm 0 m/S 630 mmHg 83%
    20:00 +16°C° 0,3 mm 1 m/S 630 mmHg 85%
    21:00 +14°C° 0,3 mm 1 m/S 630 mmHg 86%
    22:00 +13°C° 0,3 mm 1 m/S 630 mmHg 88%
    23:00 +13°C° 0 mm 1 m/S 630 mmHg 88%
    Mehr zeigen